User: anonymous   Login
Location: Beccas
(43.4309°N, 0.1528°E)
Time: 03:34:59
(UTC+00:00)
Language:

Okean 2 Rocket - Orbit

View from above orbital plane
View from above orbital plane
View from above satellite
View from above satellite

Ground track
Ground track

The orbit data is extracted from the following two-line orbital elements,

1 20511U 90018B   22021.56232562  .00000155  00000-0  17373-4 0  9991
2 20511  82.5227 190.0324 0017662  10.3923  54.9649 14.80119768699361
Epoch (UTC): 21 January 2022 13:29:44
Eccentricity: 0.0017662
inclination: 82.5227°
perigee height: 616 km
apogee height: 641 km
right ascension of ascending node: 190.0324°
argument of perigee: 10.3923°
revolutions per day: 14.80119768
mean anomaly at epoch: 54.9649°
orbit number at epoch: 69936

The dashed part of the orbit path shows where the satellite is in the earth's shadow,  

DLR